Pineville, WV

10:23 PM EDT on October 19, 2017 (GMT -0400)
Pineville

Weather History for KI16 - November, 2012

Change the Weather History Date:

Saturday, November 24, 2012

  Actual Average (KBKW) Record (KBKW)
Temperature  
Mean Temperature 34 °F -  
Max Temperature 39 °F 49 °F 73 °F (1973)
Min Temperature 26 °F 31 °F 5 °F (1970)
Degree Days  
Heating Degree Days 32    
Moisture  
Dew Point 23 °F    
Average Humidity 69    
Maximum Humidity 85    
Minimum Humidity 62    
Precipitation  
Precipitation 0.00 in - - ()
Sea Level Pressure  
Sea Level Pressure 30.14 in    
Wind  
Wind Speed - (North)    
Max Wind Speed -    
Max Gust Speed -    
Visibility 10 miles    
Events Snow    
Averages and records for this station are not official NWS values.
T = Trace of Precipitation, MM = Missing Value Source: NWS Daily Summary

Daily Weather History Graph

Daily Weather History Graph

Search for Another Location

Airport or City:

Trip Planner

Search our weather history database for the weather conditions in past years. The results will help you decide how hot, cold, wet, or windy it might be!

Date:

Astronomy

Nov. 24, 2012 Rise Set
Actual Time 7:15 AM EST 5:09 PM EST
Civil Twilight 6:47 AM EST 5:38 PM EST
Nautical Twilight 6:15 AM EST 6:10 PM EST
Astronomical Twilight 5:44 AM EST 6:41 PM EST
Moon 2:51 PM EST (11/24) 3:34 AM EST (11/24)
Length of Visible Light 10h 50m
Length of Day
9h 53m
Waxing Gibbous, 87% of the Moon is Illuminated
Nov 24
Waxing Gibbous
Nov 28
Full
Dec 6
Last Quarter
Dec 13
New
Dec 20
First Quarter

Hourly Weather History & Observations

Time (EST) Temp. Dew Point Humidity Pressure Visibility Wind Dir Wind Speed Gust Speed Precip Events Conditions
12:15 AM 40.1 °F 29.1 °F 65% 30.08 in 10.0 mi North - - N/A   Overcast
12:35 AM 39.7 °F 28.6 °F 64% 30.08 in 10.0 mi North - - N/A   Overcast
12:55 AM 39.2 °F 29.3 °F 68% 30.07 in 10.0 mi North - - N/A   Overcast
1:15 AM 38.8 °F 30.0 °F 71% 30.07 in 10.0 mi North - - N/A   Overcast
1:35 AM 38.5 °F 29.3 °F 70% 30.07 in 10.0 mi North - - N/A   Overcast
1:55 AM 38.1 °F 28.2 °F 68% 30.08 in 10.0 mi North - - N/A   Overcast
2:35 AM 36.1 °F 29.1 °F 76% 30.09 in 10.0 mi North - - N/A   Overcast
3:15 AM 34.9 °F 28.4 °F 77% 30.10 in 10.0 mi North - - N/A   Overcast
3:55 AM 33.8 °F 28.2 °F 80% 30.10 in 10.0 mi North - - N/A   Overcast
4:15 AM 33.8 °F 27.7 °F 78% 30.10 in 10.0 mi North - - N/A   Overcast
4:35 AM 33.4 °F 27.3 °F 78% 30.10 in 10.0 mi North - - N/A   Overcast
4:55 AM 33.1 °F 26.8 °F 78% 30.11 in 10.0 mi North - - N/A   Overcast
5:15 AM 32.9 °F 26.8 °F 78% 30.12 in 10.0 mi North - - N/A   Overcast
5:35 AM 32.9 °F 26.4 °F 77% 30.12 in 10.0 mi North - - N/A   Overcast
5:55 AM 32.7 °F 25.2 °F 74% 30.13 in 10.0 mi North - - N/A   Overcast
6:15 AM 32.4 °F 24.4 °F 73% 30.13 in 10.0 mi North - - N/A   Overcast
6:35 AM 32.0 °F 23.5 °F 71% 30.13 in 10.0 mi North - - N/A   Overcast
6:55 AM 32.0 °F 22.8 °F 69% 30.13 in 10.0 mi North - - N/A   Overcast
7:15 AM 32.0 °F 22.6 °F 68% 30.14 in 10.0 mi North - - N/A   Overcast
7:35 AM 32.0 °F 22.3 °F 67% 30.14 in 10.0 mi North - - N/A   Overcast
7:55 AM 32.0 °F 22.5 °F 68% 30.15 in 10.0 mi North - - N/A   Overcast
8:15 AM 31.8 °F 21.9 °F 67% 30.15 in 10.0 mi North - - N/A   Overcast
8:35 AM 31.6 °F 22.1 °F 68% 30.16 in 10.0 mi North - - N/A   Overcast
8:55 AM 31.5 °F 22.8 °F 70% 30.16 in 7.0 mi North - - N/A   Overcast
9:15 AM 31.1 °F 23.7 °F 74% 30.17 in 7.0 mi North - - N/A   Overcast
9:35 AM 31.1 °F 23.2 °F 72% 30.18 in 10.0 mi North - - N/A   Overcast
9:55 AM 31.1 °F 23.0 °F 72% 30.18 in 10.0 mi North - - N/A Snow Light Snow
10:15 AM 31.6 °F 23.2 °F 71% 30.18 in 10.0 mi North - - N/A Snow Light Snow
10:35 AM 31.6 °F 22.6 °F 69% 30.18 in 7.0 mi North - - N/A Snow Light Snow
10:55 AM 32.0 °F 21.7 °F 66% 30.18 in 10.0 mi North - - N/A   Overcast
11:15 AM 32.2 °F 22.3 °F 67% 30.17 in 10.0 mi North - - N/A   Overcast
11:35 AM 32.0 °F 22.3 °F 67% 30.16 in 10.0 mi North - - N/A   Overcast
11:55 AM 32.2 °F 22.6 °F 68% 30.16 in 10.0 mi North - - N/A   Overcast
12:15 PM 33.1 °F 22.3 °F 65% 30.15 in 10.0 mi North - - N/A   Overcast
12:35 PM 32.9 °F 21.9 °F 64% 30.14 in 10.0 mi North - - N/A   Overcast
12:55 PM 32.9 °F 21.7 °F 64% 30.14 in 10.0 mi North - - N/A   Overcast
1:15 PM 32.9 °F 22.1 °F 65% 30.14 in 10.0 mi North - - N/A   Overcast
1:35 PM 32.9 °F 22.5 °F 65% 30.14 in 10.0 mi North - - N/A   Overcast
1:55 PM 33.3 °F 22.1 °F 64% 30.13 in 10.0 mi North - - N/A   Overcast
2:15 PM 33.4 °F 21.6 °F 62% 30.13 in 10.0 mi North - - N/A   Overcast
2:35 PM 33.4 °F 21.9 °F 63% 30.13 in 10.0 mi North - - N/A   Overcast
2:55 PM 33.1 °F 21.9 °F 64% 30.14 in 10.0 mi North - - N/A   Overcast
3:15 PM 32.9 °F 21.4 °F 63% 30.14 in 10.0 mi North - - N/A   Overcast
3:35 PM 32.9 °F 21.2 °F 62% 30.14 in 10.0 mi North - - N/A   Overcast
3:55 PM 32.9 °F 21.2 °F 62% 30.15 in 10.0 mi North - - N/A   Overcast
4:15 PM 32.9 °F 21.2 °F 62% 30.15 in 10.0 mi North - - N/A   Overcast
4:35 PM 32.4 °F 21.9 °F 65% 30.15 in 10.0 mi North - - N/A   Overcast
4:55 PM 32.2 °F 21.7 °F 65% 30.16 in 10.0 mi North - - N/A   Overcast
5:15 PM 32.0 °F 22.1 °F 67% 30.16 in 10.0 mi North - - N/A   Overcast
5:35 PM 32.0 °F 21.2 °F 64% 30.16 in 10.0 mi North - - N/A   Overcast
5:55 PM 32.0 °F 21.7 °F 66% 30.17 in 10.0 mi North - - N/A   Overcast
6:15 PM 32.0 °F 21.9 °F 66% 30.17 in 10.0 mi North - - N/A   Overcast
6:35 PM 32.0 °F 22.1 °F 67% 30.18 in 10.0 mi North - - N/A   Overcast
6:55 PM 32.0 °F 22.3 °F 67% 30.17 in 10.0 mi North - - N/A   Overcast
7:15 PM 32.0 °F 22.3 °F 67% 30.17 in 10.0 mi North - - N/A   Overcast
7:35 PM 31.8 °F 21.6 °F 66% 30.18 in 10.0 mi North - - N/A   Overcast
7:55 PM 31.6 °F 20.5 °F 63% 30.18 in 10.0 mi North - - N/A   Overcast
8:15 PM 31.5 °F 20.7 °F 64% 30.17 in 10.0 mi North - - N/A   Overcast
8:35 PM 31.5 °F 20.7 °F 64% 30.17 in 10.0 mi North - - N/A   Overcast
8:55 PM 31.1 °F 20.1 °F 64% 30.17 in 10.0 mi North - - N/A   Overcast
9:15 PM 31.1 °F 20.3 °F 64% 30.18 in 10.0 mi North - - N/A   Overcast
9:35 PM 31.1 °F 20.3 °F 64% 30.17 in 10.0 mi North - - N/A   Overcast
9:55 PM 30.9 °F 20.3 °F 65% 30.16 in 10.0 mi North - - N/A   Overcast
10:15 PM 30.4 °F 21.0 °F 68% 30.17 in 10.0 mi North - - N/A   Overcast
10:55 PM 29.3 °F 22.5 °F 76% 30.16 in 10.0 mi North - - N/A   Mostly Cloudy
11:15 PM 27.5 °F 22.6 °F 82% 30.16 in 10.0 mi North - - N/A   Scattered Clouds
11:35 PM 27.5 °F 22.6 °F 82% 30.15 in 10.0 mi North - - N/A   Mostly Cloudy
11:55 PM 26.4 °F 22.5 °F 85% 30.14 in 10.0 mi North - - N/A   Overcast